Regional Weather Roundup
Issued by NWS New Orleans/Baton Rouge, LA

Home | Current Version | Previous Version | Text Only | Print | Product List | Glossary On
Versions: 1 2 3 4 5 6 7 8 9 10 11 12 13 14 15 16 17 18 19 20 21 22 23 24 25 26 27
000
ASUS44 KLIX 010011
RWRLIX
NEW ORLEANS REGIONAL WEATHER ROUNDUP
NATIONAL WEATHER SERVICE NEW ORLEANS LA
700 PM CDT SAT APR 30 2016

NOTE: "FAIR" INDICATES FEW OR NO CLOUDS BELOW 12,000 FEET WITH NO
      SIGNIFICANT WEATHER AND/OR OBSTRUCTIONS TO VISIBILITY.
      SKY/WX - SKY CONDITION AND SIGNIFICANT WEATHER.
      TMP - AIR TEMPERATURE.     DP    - DEWPOINT TEMPERATURE.
      RH  - RELATIVE HUMIDITY.   PRES  - PRESSURE.
      HI  - HEAT INDEX.          WCI   - WIND CHILL INDEX.

*  THESE STATIONS ARE NOT NWS OR FAA STATIONS AND ARE NOT UNDER
   NWS QUALITY CONTROL.

LAZ038-040-048-061>063-065>067-069-010100-
SOUTHEAST LOUISIANA

CITY           SKY/WX    TMP DP  RH WIND       PRES   REMARKS
N.O. AUDUBON   NOT AVBL
N.O. INTL ARPT CLOUDY    71  66  84 SE9       29.84R
6HR MIN TEMP:  70; 6HR MAX TEMP:  80; 6HR PCP:  2.07;

N.O. LAKEFRONT CLOUDY    68  65  90 S8        29.84R
6HR MIN TEMP:  65; 6HR MAX TEMP:  76; 6HR PCP:  2.72;

N.O. DOWNTOWN* CLOUDY    71  67  87 S9        29.84R
6HR MIN TEMP:  70; 6HR MAX TEMP:  79; 6HR PCP:  1.42;

RESERVE*       CLOUDY    73  67  82 SE7       29.83R
6HR MIN TEMP:  72; 6HR MAX TEMP:  80; 6HR PCP:  1.22;

SLIDELL        CLOUDY    70  68  93 E6        29.83S
6HR MIN TEMP:  68; 6HR MAX TEMP:  80; 6HR PCP:  1.53;

BATON ROUGE    CLOUDY    75  67  76 E8        29.81R
6HR MIN TEMP:  67; 6HR MAX TEMP:  76; 6HR PCP:  1.53;

BOOTHVILLE     RAIN      69  67  93 CALM      29.93R FOG
6HR MIN TEMP:  68; 6HR MAX TEMP:  79; 6HR PCP:  0.55;

BELLE CHASSE   LGT RAIN  71  67  87 SE13G26   29.85R
6HR MIN TEMP:  69; 6HR MAX TEMP:  79;

BOGALUSA*        N/A     70  64  81 S7        29.86R
6HR MIN TEMP:  67; 6HR MAX TEMP:  81; 6HR PCP:  1.19;

GALLIANO*      TSTM      67  65  94 SE3       29.90R VSB 3/4
6HR MIN TEMP:  67; 6HR MAX TEMP:  81; 6HR PCP:  1.88;

NEW ROADS*     MOCLDY    74  69  85 SE8       29.79R
6HR MIN TEMP:  67; 6HR MAX TEMP:  77; 6HR PCP:  0.03;

GONZALES*      CLOUDY    72  69  90 SE6       29.81R
6HR MIN TEMP:  69; 6HR MAX TEMP:  78; 6HR PCP:  1.39;

HAMMOND*       MOCLDY    72  64  78 SE7       29.84R
HOUMA*         PTCLDY    70  68  94 S12G21    29.81R
PORT FOURCHON* CLOUDY    72  70  94 NE10G17   29.90R FOG

$$

MSZ070-080>082-010100-
SOUTHERN MISSISSIPPI

CITY           SKY/WX    TMP DP  RH WIND       PRES   REMARKS
MCCOMB         CLOUDY    71  66  84 S21G28    29.82R
6HR MIN TEMP:  65; 6HR MAX TEMP:  75; 6HR PCP:  1.18;

GULFPORT       LGT RAIN  71  65  81 SE15      29.85F
6HR MIN TEMP:  69; 6HR MAX TEMP:  80; 6HR PCP:  0.44;

BILOXI         LGT RAIN  70  69  99 SE9       29.88F
6HR MIN TEMP:  69; 6HR MAX TEMP:  80; 6HR PCP:  0.44;

PASCAGOULA     HVY RAIN  68  67  96 NW9G17    29.94R VSB 1
6HR MIN TEMP:  70; 6HR MAX TEMP:  80; 6HR PCP:  0.10;

STENNIS ARPT*  MOCLDY    68  63  83 S17G28    29.83F

$$

COASTAL OBSERVATIONS
LAKE AND NEARSHORE STATIONS

STATION/POSITION TIME  TEMP    WIND        PRES    WAVE
                       AIR SEA DIR/SP/G            HT/PER
                 (UTC) (F)     (DEG/KT/KT) (MB)    (FT/S)
PASCAGOULA       2300   77                   N/A
WAVELAND YACHT   2300   70 74                N/A
GRAND ISLE       2300   68 77                N/A
SOUTHWEST PASS   2300           70/ 10/ 12   N/A
NEW CANAL        2300   69 75                N/A
SHELL BEACH      2300   71 77                N/A

OFFSHORE STATIONS

STATION/POSITION TIME  TEMP    WIND        PRES    WAVE
                       AIR SEA DIR/SP/G            HT/PER
                 (UTC) (F)     (DEG/KT/KT) (MB)    (FT/S)
64 S DAUPHIN ISL 2300   76 74  100/  6/  8 1011.6

$$





USA.gov is the U.S. government's official web portal to all federal, state and local government web resources and services.